Weather History for Coleman, TX

Change the Weather History Date:

Tuesday, January 7, 2014

  Actual Average (KABI) Record (KABI)
Temperature  
Mean Temperature 33 °F 44 °F  
Max Temperature 50 °F 56 °F 78 °F (2006)
Min Temperature 16 °F 33 °F 3 °F (1912)
Degree Days  
Heating Degree Days 32 21  
Month to date heating degree days 147  
Since 1 July heating degree days 1192  
Cooling Degree Days 0 0  
Month to date cooling degree days 0  
Year to date cooling degree days 0  
Moisture  
Dew Point 14 °F    
Average Humidity 49    
Maximum Humidity 71    
Minimum Humidity 27    
Precipitation  
Precipitation 0.00 in 0.03 in 1.92 in (1961)
Month to date precipitation 0.21  
Year to date precipitation 0.21  
Sea Level Pressure  
Sea Level Pressure 30.35 in    
Wind  
Wind Speed 7 mph (SSW)    
Max Wind Speed 22 mph    
Max Gust Speed 28 mph    
Visibility 10 miles    
Events      
T = Trace of Precipitation, MM = Missing Value Source: NWS Daily Summary

Daily Weather History Graph

Daily Weather History Graph

Search for Another Location

Airport:

Trip Planner

Search our weather history database for the weather conditions in past years. The results will help you decide how hot, cold, wet, or windy it might be!

Date:

Astronomy

Jan. 07, 2014 Rise Set
Actual Time 7:38 AM CST 5:49 PM CST
Civil Twilight 7:11 AM CST 6:16 PM CST
Nautical Twilight 6:41 AM CST 6:46 PM CST
Astronomical Twilight 6:12 AM CST 7:16 PM CST
Moon 11:55 AM CST (1/7) No Moon Set
Length of Visible Light 11h 04m
Length of Day
10h 10m
Waxing Crescent, 46% of the Moon is Illuminated
Jan 7
Waxing Crescent
Jan 7
First Quarter
Jan 15
Full
Jan 23
Last Quarter
Jan 30
New

Hourly Weather History & Observations

Time (CST) Temp. Windchill Dew Point Humidity Pressure Visibility Wind Dir Wind Speed Gust Speed Precip Events Conditions
12:15 AM 22.3 °F 14.9 °F 5.7 °F 49% 30.51 in 10.0 mi SW 5.8 mph - N/A   Clear
12:35 AM 21.9 °F 15.7 °F 5.9 °F 50% 30.50 in 10.0 mi SSW 4.6 mph - N/A   Clear
12:55 AM 20.1 °F 15.2 °F 6.4 °F 55% 30.50 in 10.0 mi South 3.5 mph - N/A   Clear
1:15 AM 19.6 °F 13.0 °F 6.3 °F 56% 30.49 in 10.0 mi SW 4.6 mph - N/A   Clear
1:35 AM 19.6 °F 13.0 °F 6.6 °F 57% 30.49 in 10.0 mi SSW 4.6 mph - N/A   Clear
1:55 AM 18.9 °F 12.1 °F 6.8 °F 59% 30.49 in 10.0 mi SSW 4.6 mph - N/A   Clear
2:15 AM 18.5 °F 11.7 °F 6.8 °F 60% 30.49 in 10.0 mi SSW 4.6 mph - N/A   Clear
2:35 AM 17.6 °F 12.3 °F 7.5 °F 65% 30.49 in 10.0 mi SSW 3.5 mph - N/A   Clear
2:55 AM 19.0 °F - 7.2 °F 60% 30.49 in 10.0 mi Calm Calm - N/A   Clear
3:15 AM 19.2 °F - 7.5 °F 60% 30.49 in 10.0 mi Calm Calm - N/A   Clear
3:35 AM 17.4 °F - 7.7 °F 66% 30.49 in 10.0 mi Calm Calm - N/A   Clear
3:55 AM 19.2 °F 14.1 °F 7.3 °F 60% 30.48 in 10.0 mi SSW 3.5 mph - N/A   Clear
4:15 AM 17.2 °F - 8.1 °F 67% 30.48 in 10.0 mi Calm Calm - N/A   Clear
4:35 AM 18.7 °F - 7.7 °F 62% 30.48 in 10.0 mi Calm Calm - N/A   Clear
4:55 AM 18.1 °F 12.9 °F 7.5 °F 63% 30.48 in 10.0 mi SSW 3.5 mph - N/A   Clear
5:15 AM 17.4 °F 12.1 °F 7.7 °F 66% 30.47 in 10.0 mi SW 3.5 mph - N/A   Clear
5:35 AM 17.2 °F 10.2 °F 7.7 °F 66% 30.46 in 10.0 mi SSW 4.6 mph - N/A   Clear
5:55 AM 17.1 °F 10.0 °F 7.7 °F 67% 30.46 in 10.0 mi SW 4.6 mph - N/A   Clear
6:15 AM 16.7 °F 8.3 °F 8.1 °F 69% 30.46 in 10.0 mi SSW 5.8 mph - N/A   Clear
6:35 AM 16.9 °F 11.5 °F 8.2 °F 69% 30.45 in 10.0 mi SSW 3.5 mph - N/A   Clear
6:55 AM 17.4 °F 9.1 °F 8.4 °F 68% 30.45 in 10.0 mi SSW 5.8 mph - N/A   Clear
7:15 AM 17.2 °F 8.9 °F 9.3 °F 71% 30.46 in 10.0 mi SSW 5.8 mph - N/A   Clear
7:35 AM 17.6 °F 8.2 °F 9.5 °F 71% 30.45 in 10.0 mi SSW 6.9 mph - N/A   Clear
7:55 AM 18.1 °F 10.0 °F 9.9 °F 70% 30.45 in 10.0 mi SSW 5.8 mph - N/A   Clear
8:15 AM 19.2 °F 10.2 °F 10.6 °F 69% 30.45 in 10.0 mi SSW 6.9 mph - N/A   Clear
8:35 AM 21.6 °F 13.0 °F 11.7 °F 66% 30.45 in 10.0 mi SSW 6.9 mph - N/A   Clear
8:55 AM 23.7 °F 15.6 °F 12.2 °F 61% 30.45 in 10.0 mi SSW 6.9 mph - N/A   Clear
9:15 AM 26.2 °F 18.6 °F 12.9 °F 57% 30.46 in 10.0 mi SSW 6.9 mph - N/A   Clear
9:35 AM 28.9 °F 19.8 °F 13.1 °F 52% 30.45 in 10.0 mi SSW 10.4 mph - N/A   Clear
9:55 AM 31.5 °F 21.8 °F 13.3 °F 47% 30.46 in 10.0 mi SSW 12.7 mph - N/A   Clear
10:15 AM 32.7 °F 23.9 °F 13.1 °F 44% 30.46 in 10.0 mi SSW 11.5 mph - N/A   Clear
10:35 AM 33.4 °F 25.9 °F 13.6 °F 44% 30.45 in 10.0 mi SSW 9.2 mph - N/A   Clear
10:55 AM 35.4 °F 28.4 °F 14.5 °F 42% 30.44 in 10.0 mi SW 9.2 mph - N/A   Clear
11:15 AM 36.9 °F 28.7 °F 14.0 °F 39% 30.43 in 10.0 mi SSW 12.7 mph - N/A   Clear
11:35 AM 37.6 °F 29.1 °F 14.0 °F 38% 30.42 in 10.0 mi SSW 13.8 mph - N/A   Clear
11:55 AM 38.3 °F 31.9 °F 14.5 °F 38% 30.40 in 10.0 mi SSW 9.2 mph 21.9 mph N/A   Clear
12:15 PM 39.6 °F 32.1 °F 14.2 °F 36% 30.38 in 10.0 mi South 12.7 mph 19.6 mph N/A   Clear
12:35 PM 41.5 °F 34.2 °F 14.5 °F 33% 30.36 in 10.0 mi SSW 13.8 mph 18.4 mph N/A   Clear
12:55 PM 43.3 °F 36.8 °F 14.5 °F 31% 30.34 in 10.0 mi SSW 12.7 mph 20.7 mph N/A   Clear
1:15 PM 44.2 °F 37.3 °F 14.9 °F 31% 30.32 in 10.0 mi SSW 15.0 mph 20.7 mph N/A   Clear
1:35 PM 45.0 °F 37.9 °F 14.5 °F 29% 30.30 in 10.0 mi SSW 16.1 mph 23.0 mph N/A   Clear
1:55 PM 46.0 °F 39.6 °F 15.1 °F 29% 30.29 in 10.0 mi SSW 15.0 mph 21.9 mph N/A   Clear
2:15 PM 47.5 °F - 15.8 °F 28% 30.28 in 10.0 mi South 13.8 mph - N/A   Clear
2:35 PM 48.4 °F - 16.0 °F 27% 30.26 in 10.0 mi South 18.4 mph 25.3 mph N/A   Clear
2:55 PM 48.4 °F - 16.2 °F 28% 30.26 in 10.0 mi South 21.9 mph 25.3 mph N/A   Clear
3:15 PM 49.3 °F - 16.7 °F 27% 30.26 in 5.0 mi SSW 16.1 mph 21.9 mph N/A   Haze
3:35 PM 49.5 °F - 16.5 °F 27% 30.25 in 10.0 mi SSW 18.4 mph 27.6 mph N/A   Clear
3:55 PM 49.5 °F - 16.2 °F 27% 30.25 in 10.0 mi South 17.3 mph 21.9 mph N/A   Clear
4:15 PM 50.0 °F - 16.9 °F 27% 30.25 in 10.0 mi SSW 16.1 mph 23.0 mph N/A   Clear
4:35 PM 49.6 °F - 16.7 °F 27% 30.24 in 10.0 mi South 16.1 mph 23.0 mph N/A   Clear
4:55 PM 48.9 °F - 16.7 °F 28% 30.23 in 10.0 mi SSW 15.0 mph - N/A   Clear
5:15 PM 48.2 °F - 17.4 °F 29% 30.22 in 10.0 mi South 16.1 mph 21.9 mph N/A   Clear
5:35 PM 46.9 °F - 18.5 °F 32% 30.22 in 10.0 mi SSW 16.1 mph 20.7 mph N/A   Clear
5:55 PM 45.1 °F 39.1 °F 18.5 °F 35% 30.22 in 10.0 mi SSW 12.7 mph 20.7 mph N/A   Clear
6:15 PM 44.1 °F 37.4 °F 19.6 °F 38% 30.21 in 10.0 mi SSW 13.8 mph - N/A   Clear
6:35 PM 42.3 °F 36.8 °F 20.5 °F 42% 30.20 in 10.0 mi South 9.2 mph - N/A   Clear
6:55 PM 41.0 °F 34.3 °F 20.7 °F 44% 30.21 in 10.0 mi South 11.5 mph - N/A   Clear
7:15 PM 41.2 °F 34.5 °F 19.6 °F 42% 30.21 in 10.0 mi South 11.5 mph - N/A   Clear
7:35 PM 39.9 °F 32.9 °F 19.9 °F 45% 30.21 in 10.0 mi South 11.5 mph - N/A   Clear
7:55 PM 39.9 °F 32.9 °F 20.7 °F 46% 30.21 in 10.0 mi SSW 11.5 mph - N/A   Clear
8:15 PM 39.2 °F 32.5 °F 21.2 °F 49% 30.22 in 10.0 mi South 10.4 mph - N/A   Clear
8:35 PM 38.1 °F 31.7 °F 21.2 °F 51% 30.22 in 10.0 mi South 9.2 mph - N/A   Clear
8:55 PM 37.2 °F 30.6 °F 21.6 °F 53% 30.23 in 10.0 mi South 9.2 mph - N/A   Clear
9:15 PM 36.5 °F 29.2 °F 20.8 °F 53% 30.23 in 10.0 mi South 10.4 mph - N/A   Clear
9:35 PM 36.5 °F 29.7 °F 20.1 °F 52% 30.22 in 10.0 mi South 9.2 mph - N/A   Clear
9:55 PM 35.6 °F 28.0 °F 19.4 °F 52% 30.22 in 10.0 mi South 10.4 mph - N/A   Clear
10:15 PM 35.1 °F 27.4 °F 18.3 °F 51% 30.22 in 10.0 mi South 10.4 mph - N/A   Clear
10:35 PM 34.9 °F 27.1 °F 17.6 °F 49% 30.21 in 10.0 mi South 10.4 mph - N/A   Clear
10:55 PM 34.7 °F 27.5 °F 19.2 °F 53% 30.21 in 10.0 mi South 9.2 mph - N/A   Clear
11:15 PM 34.7 °F 27.5 °F 20.1 °F 55% 30.21 in 10.0 mi SSW 9.2 mph - N/A   Clear
11:35 PM 34.7 °F 27.5 °F 20.8 °F 57% 30.21 in 10.0 mi SSW 9.2 mph - N/A   Clear
11:55 PM 35.2 °F 29.5 °F 21.2 °F 57% 30.20 in 10.0 mi SSW 6.9 mph - N/A   Mostly Cloudy